[[{"header":{"parameterUnit":"m.s-1","parameterCategory":1,"la1":30.2991,"la2":30.254,"lo1":-89.0895,"lo2":-89.0444,"dy":0.0017,"dx":0.0017,"nx":28,"ny":28,"refTime":"2023-08-19T09:00:00:Z","depth":0,"parameterNumber":2,"parameterNumberName":"U-component_of_WINDS"},"data":[0,0,0,0,0,0,0,0,0,0,0,0,0,0,0,0,0,0,0,0,0,0,0,0,0,0,0,0,0,0,0,0,0,0,0,0,0,0,0,0,0,0,0,0,0,0,0,0,0,0,0,0,0,0,0,0,0,0,-6.2696,-6.2697,0,-6.2764,-6.2764,-6.2765,-6.2663,-6.266,-6.2656,-6.2653,-6.2715,-6.272,-6.2724,0,0,0,0,0,0,0,0,0,0,0,0,0,-6.2472,-6.2477,-6.2696,-6.2697,-6.2698,-6.2764,-6.2765,-6.2765,-6.2664,-6.266,-6.2655,-6.2651,-6.2713,-6.2719,-6.2725,0,0,0,0,0,0,0,0,0,0,0,0,0,-6.2557,-6.2478,-6.2696,-6.2655,-6.2652,-6.2763,-6.2765,-6.2766,-6.2665,-6.266,-6.2654,-6.2649,-6.2711,-6.2718,-6.2726,-6.2877,0,0,-6.2748,-6.2751,0,0,0,0,0,0,0,0,-6.2553,-6.2566,-6.266,-6.2658,-6.2655,-6.27,-6.2708,-6.2803,-6.2666,-6.266,-6.2653,-6.2647,-6.2714,-6.272,-6.2744,-6.288,-6.2883,-6.2749,-6.2753,-6.2757,-6.2759,0,0,0,0,0,0,0,-6.2547,-6.2562,-6.2722,-6.2662,-6.2659,-6.2631,-6.2638,-6.2725,-6.2715,-6.266,-6.2653,-6.2663,-6.2711,-6.2738,-6.2745,-6.2884,-6.2749,-6.2755,-6.276,-6.2763,-6.3145,-6.3151,0,0,0,0,0,0,-6.2547,-6.2558,-6.272,-6.2725,-6.259,-6.264,-6.2647,-6.2691,-6.2714,-6.2713,-6.2667,-6.2658,-6.2728,-6.2737,-6.2747,-6.2924,-6.2757,-6.2763,-6.2768,-6.314,-6.3147,-6.3153,0,0,0,0,0,0,-6.2542,-6.2562,-6.2718,-6.2639,-6.2657,-6.2649,-6.2699,-6.2695,-6.2721,-6.272,-6.2717,-6.2697,-6.2724,-6.2737,-6.2846,-6.2925,-6.2767,-6.2774,-6.3133,-6.3142,-6.315,-6.3281,0,0,0,0,0,0,-6.2536,-6.2561,-6.262,-6.2642,-6.2662,-6.2818,-6.2704,-6.27,-6.2735,-6.2724,-6.2746,-6.2745,-6.2721,-6.2835,-6.2853,-6.2932,-6.2779,-6.3126,-6.3137,-6.3147,-6.327,-6.3293,-6.3313,0,0,0,0,0,-6.2529,-6.2653,-6.2624,-6.2644,-6.2736,-6.2823,-6.2834,-6.2805,-6.2742,-6.28,-6.2799,-6.2744,-6.2915,-6.2847,-6.2867,-6.2949,-6.3121,-6.3134,-6.3146,-6.326,-6.3289,-6.3313,0,0,0,0,0,0,-6.2638,-6.2655,-6.2623,-6.2758,-6.279,-6.2805,-6.2877,-6.2837,-6.2885,-6.2872,-6.2832,-6.2838,-6.2955,-6.2963,-6.2888,-6.3096,-6.3006,-6.3024,-6.3086,-6.3114,-6.3135,-6.3129,-6.2785,0,0,0,0,0,-6.2679,-6.2751,-6.276,-6.2879,-6.2897,-6.2885,-6.2922,-6.2898,-6.2928,-6.294,-6.2946,-6.2976,-6.3035,-6.3075,-6.3131,-6.3272,-6.3274,-6.3338,-6.336,-6.3378,-6.3392,-6.3465,-6.3493,-6.3195,-6.3195,-6.3195,0,0,-6.2762,-6.278,-6.2827,-6.2902,-6.2923,-6.2996,-6.2897,-6.2978,-6.303,-6.2951,-6.3054,-6.3061,-6.3091,-6.3217,-6.3272,-6.3227,-6.3475,-6.3394,-6.3409,-6.3413,-6.3481,-6.351,-6.3535,-6.3204,-6.3202,-6.3201,0,0,-6.295,-6.2973,-6.3073,-6.3098,-6.3133,-6.3125,-6.3149,-6.3171,-6.3173,-6.3278,-6.3219,-6.3281,-6.3385,-6.3408,-6.3434,-6.3634,-6.3584,-6.3653,-6.3765,-6.3837,-6.386,-6.3881,-6.3949,-6.3975,-6.3668,-6.3668,-6.3668,0,-6.3047,-6.3157,-6.3129,-6.3215,-6.3248,-6.3184,-6.3283,-6.3308,-6.3359,-6.3382,-6.3332,-6.3462,-6.3477,-6.3607,-6.3656,-6.368,-6.3704,-6.3648,-6.386,-6.388,-6.3899,-6.3964,-6.399,-6.3676,-6.3675,-6.3674,-6.3673,0,-6.3274,-6.3351,-6.3428,-6.3481,-6.3523,-6.3616,-6.36,-6.3646,-6.3619,-6.3615,-6.3721,-6.3739,-6.3795,-6.3825,-6.3798,-6.3951,-6.3921,-6.3867,-6.3775,-6.3936,-6.3996,-6.402,-6.3687,-6.3684,-6.3682,-6.368,0,0,-6.3529,-6.3568,-6.3596,-6.362,-6.3655,-6.3712,-6.3802,-6.386,-6.3899,-6.3937,-6.4008,-6.41,-6.405,-6.4079,-6.4055,-6.4118,-6.4272,-6.4055,-6.4055,-6.4092,-6.4438,-6.4477,-6.4506,-6.4242,-6.4246,-6.425,-6.4435,0,-6.3714,-6.387,-6.3849,-6.3998,-6.4067,-6.4008,-6.4085,-6.4114,-6.4114,-6.417,-6.4169,-6.4233,-6.4164,-6.4181,-6.4242,-6.4241,-6.4341,-6.4228,-6.4304,-6.4307,-6.4295,-6.4538,-6.4579,-6.4752,-6.4458,-6.4462,-6.4465,0,-6.395,-6.4,-6.4156,-6.4181,-6.4209,-6.428,-6.4331,-6.4388,-6.4419,-6.4414,-6.4448,-6.4413,-6.4499,-6.441,-6.4527,-6.445,-6.4481,-6.4486,-6.4492,-6.4494,-6.4393,-6.4544,-6.4807,-6.4832,-6.4502,-6.4499,-6.4497,0,-6.4117,-6.4223,-6.433,-6.4352,-6.4384,-6.4435,-6.445,-6.4476,-6.4513,-6.4558,-6.4581,-6.4635,-6.4663,-6.4705,-6.4684,-6.4621,-6.4804,-6.4713,-6.4799,-6.48,-6.4837,-6.4834,-6.5106,-6.4864,-6.4863,-6.4863,-6.4862,0,-6.4324,-6.4421,-6.4405,-6.447,-6.4577,-6.4552,-6.4657,-6.4665,-6.469,-6.4753,-6.4706,-6.4767,-6.4738,-6.4796,-6.478,-6.4878,-6.4892,-6.4888,-6.4882,-6.4891,-6.4891,-6.4907,-6.4893,-6.487,-6.4868,-6.4867,-6.4866,0,-6.4526,-6.452,-6.4632,-6.4655,-6.4663,-6.4741,-6.4759,-6.4819,-6.4817,-6.4898,-6.4916,-6.4911,-6.4977,-6.4962,-6.5033,-6.5022,-6.5145,-6.5126,-6.5135,-6.5129,-6.5215,-6.5206,-6.5503,-6.554,-6.5278,-6.528,-6.5282,0,-6.4656,-6.473,-6.4763,-6.4804,-6.4824,-6.489,-6.4928,-6.4906,-6.4947,-6.4989,-6.5043,-6.5106,-6.5154,-6.5262,-6.5263,-6.5318,-6.5297,-6.5398,-6.5304,-6.531,-6.5294,-6.5289,-6.5295,-6.5414,-6.5417,-6.542,-6.5422,0,-6.4888,-6.4882,-6.494,-6.4998,-6.5045,-6.5088,-6.5127,-6.5163,-6.5143,-6.5191,-6.526,-6.5298,-6.5373,-6.5434,-6.5485,-6.5498,-6.5456,-6.5452,-6.5474,-6.5482,-6.5483,-6.548,-6.5182,-6.5444,-6.5442,-6.544,-6.5439,-6.5438,-6.5056,-6.5119,-6.5151,-6.5217,-6.5245,-6.5283,-6.534,-6.5347,-6.5404,-6.5464,-6.5448,-6.5525,-6.5554,-6.5618,-6.5638,-6.5696,-6.5658,-6.5691,-6.5698,-6.5706,-6.5715,-6.5478,-6.5705,-6.5705,-6.5704,-6.5704,-6.5703,0,-6.5282,-6.5301,-6.5363,-6.542,-6.5471,-6.5433,-6.5473,-6.5518,-6.5588,-6.562,-6.567,-6.5748,-6.5808,-6.5815,-6.5871,-6.5917,-6.5899,-6.5932,-6.5926,-6.5929,-6.5748,-6.5722,-6.5945,-6.5945,-6.5945,-6.5945,-6.5945,-6.5945,-6.5405,-6.5509,-6.5507,-6.5623,-6.5641,-6.5718,-6.5745,-6.5779,-6.5804,-6.5895,-6.5945,-6.5951,-6.5972,-6.603,-6.6083,-6.6083,-6.6104,-6.6144,-6.6137,-6.5966,-6.5942,-6.5919,-6.5894,-6.615,-6.615,-6.6313,-6.6315,-6.6316]},{"header":{"parameterUnit":"m.s-1","parameterCategory":1,"la1":30.2991,"la2":30.254,"lo1":-89.0895,"lo2":-89.0444,"dy":0.0017,"dx":0.0017,"nx":28,"ny":28,"refTime":"2023-08-19T09:00:00:Z","depth":0,"parameterNumber":3,"parameterNumberName":"V-component_of_WINDS"},"data":[0,0,0,0,0,0,0,0,0,0,0,0,0,0,0,0,0,0,0,0,0,0,0,0,0,0,0,0,0,0,0,0,0,0,0,0,0,0,0,0,0,0,0,0,0,0,0,0,0,0,0,0,0,0,0,0,0,0,1.2843,1.2843,0,1.279,1.2789,1.2788,1.2771,1.2771,1.2772,1.2772,1.2709,1.2707,1.2705,0,0,0,0,0,0,0,0,0,0,0,0,0,1.2925,1.2924,1.2843,1.2843,1.2842,1.279,1.2789,1.2788,1.2771,1.2771,1.2772,1.2772,1.2709,1.2707,1.2705,0,0,0,0,0,0,0,0,0,0,0,0,0,1.2882,1.2923,1.2844,1.2827,1.2825,1.279,1.2789,1.2788,1.2771,1.2771,1.2772,1.2772,1.271,1.2707,1.2704,1.2679,0,0,1.2696,1.2694,0,0,0,0,0,0,0,0,1.2885,1.2879,1.283,1.2828,1.2826,1.2788,1.2795,1.2751,1.2771,1.2791,1.2772,1.2772,1.2734,1.2729,1.2718,1.2676,1.2673,1.2695,1.2694,1.2692,1.2692,0,0,0,0,0,0,0,1.2888,1.2881,1.2822,1.283,1.2827,1.2821,1.2815,1.2786,1.2761,1.279,1.2788,1.2783,1.2733,1.2721,1.2716,1.2672,1.2695,1.2693,1.2691,1.269,1.2606,1.2606,0,0,0,0,0,0,1.2894,1.2884,1.2824,1.282,1.2857,1.2819,1.2813,1.2799,1.2761,1.2756,1.2782,1.2782,1.2726,1.272,1.2714,1.2682,1.2692,1.269,1.2688,1.2607,1.2606,1.2606,0,0,0,0,0,0,1.2896,1.2889,1.2826,1.2852,1.2843,1.2817,1.2802,1.2798,1.2786,1.2756,1.275,1.2775,1.2726,1.2718,1.2688,1.2679,1.2688,1.2686,1.2607,1.2607,1.2606,1.2617,0,0,0,0,0,0,1.2899,1.289,1.2881,1.2852,1.2842,1.2803,1.2802,1.2797,1.2782,1.2781,1.2748,1.2742,1.2725,1.2693,1.2685,1.2675,1.2683,1.2608,1.2607,1.2606,1.2617,1.2616,1.2616,0,0,0,0,0,1.2902,1.2884,1.2881,1.2874,1.2831,1.2802,1.2796,1.278,1.2782,1.2772,1.2752,1.2743,1.2682,1.269,1.2681,1.267,1.2608,1.2607,1.2606,1.2617,1.2617,1.2616,0,0,0,0,0,0,1.291,1.288,1.2876,1.2849,1.2829,1.28,1.2786,1.2779,1.2756,1.2756,1.2734,1.2726,1.2698,1.2681,1.2691,1.2644,1.2645,1.2642,1.2656,1.2655,1.2654,1.2658,1.2681,0,0,0,0,0,1.2909,1.2891,1.2865,1.2843,1.2834,1.2812,1.2799,1.2788,1.2765,1.2756,1.2734,1.271,1.2685,1.2669,1.2645,1.2615,1.2607,1.2603,1.2603,1.2603,1.26,1.2583,1.2581,1.2602,1.2602,1.2602,0,0,1.2906,1.2888,1.2877,1.2845,1.2828,1.2807,1.2805,1.2783,1.2767,1.2751,1.2723,1.2706,1.2678,1.2648,1.2634,1.2633,1.2593,1.2601,1.2601,1.2599,1.2582,1.258,1.2578,1.2601,1.2602,1.2602,0,0,1.289,1.2875,1.2856,1.284,1.2816,1.2802,1.2798,1.277,1.2759,1.2731,1.2719,1.2699,1.2657,1.2638,1.2622,1.2602,1.2593,1.2595,1.2591,1.2575,1.2574,1.2572,1.2565,1.2562,1.2593,1.2593,1.2593,0,1.2889,1.286,1.2846,1.2826,1.2812,1.2801,1.2781,1.2765,1.2733,1.2722,1.2723,1.2672,1.2652,1.2618,1.2613,1.2601,1.2594,1.2598,1.2576,1.2574,1.2572,1.2565,1.2562,1.2593,1.2593,1.2593,1.2593,0,1.2859,1.284,1.2827,1.28,1.2784,1.2764,1.2746,1.2732,1.2723,1.2709,1.268,1.2656,1.2627,1.2619,1.2608,1.2583,1.2584,1.2581,1.258,1.2571,1.2563,1.2561,1.2594,1.2593,1.2593,1.2593,0,0,1.2845,1.2813,1.2808,1.2797,1.277,1.2753,1.2732,1.2707,1.2695,1.2674,1.2655,1.2621,1.2619,1.2601,1.2589,1.2575,1.2561,1.2574,1.2573,1.2572,1.2532,1.2534,1.2531,1.2556,1.2555,1.2555,1.2534,0,1.2825,1.279,1.2779,1.2749,1.273,1.272,1.2702,1.2683,1.2669,1.265,1.2634,1.261,1.2609,1.2599,1.2585,1.2566,1.2553,1.2567,1.2536,1.2535,1.2543,1.2527,1.2529,1.2511,1.2531,1.2531,1.253,0,1.2797,1.2779,1.2748,1.2726,1.2717,1.2702,1.2678,1.2661,1.2638,1.2629,1.2612,1.2602,1.2578,1.2581,1.2547,1.2558,1.2544,1.2534,1.2532,1.2528,1.2531,1.2521,1.2505,1.2502,1.2526,1.2526,1.2526,0,1.2789,1.2757,1.2735,1.2725,1.2698,1.2687,1.2675,1.2654,1.264,1.2619,1.261,1.2585,1.2571,1.2552,1.2535,1.2539,1.2503,1.2504,1.2493,1.2493,1.2484,1.2485,1.2464,1.2478,1.2478,1.2478,1.2478,0,1.2768,1.2749,1.2731,1.2717,1.2696,1.2682,1.2661,1.2648,1.263,1.2612,1.2601,1.2584,1.2563,1.2543,1.2529,1.2503,1.2497,1.2488,1.2484,1.2488,1.249,1.2478,1.2479,1.2477,1.2477,1.2477,1.2477,0,1.2754,1.2742,1.2717,1.2695,1.2689,1.2674,1.2655,1.264,1.2628,1.2605,1.2599,1.2578,1.2554,1.2536,1.2503,1.2494,1.2467,1.2463,1.2475,1.2473,1.2463,1.2464,1.2434,1.2429,1.2446,1.2446,1.2446,0,1.2741,1.2727,1.2705,1.2694,1.2683,1.2664,1.2651,1.2638,1.2624,1.26,1.2588,1.2564,1.2544,1.2506,1.2486,1.2462,1.2457,1.2448,1.2453,1.2458,1.2456,1.2457,1.2455,1.2447,1.2447,1.2447,1.2447,0,1.2718,1.2714,1.2697,1.2678,1.2663,1.2647,1.263,1.2621,1.2604,1.2589,1.2567,1.2552,1.2521,1.2497,1.2471,1.2456,1.2448,1.2446,1.2442,1.2445,1.2453,1.2448,1.2473,1.2446,1.2446,1.2446,1.2446,1.2446,1.2704,1.2691,1.2675,1.2656,1.2643,1.2629,1.2615,1.2602,1.2584,1.2559,1.2552,1.2529,1.2507,1.2473,1.2458,1.2438,1.2438,1.2432,1.243,1.2429,1.2429,1.2458,1.2433,1.2433,1.2433,1.2433,1.2433,0,1.268,1.267,1.2654,1.2632,1.2618,1.2616,1.2597,1.2585,1.2565,1.2548,1.253,1.2504,1.2481,1.2462,1.2438,1.2425,1.2421,1.2419,1.2419,1.2416,1.2431,1.2437,1.2424,1.2424,1.2424,1.2424,1.2424,1.2424,1.2666,1.2645,1.2639,1.2611,1.26,1.258,1.257,1.2556,1.2542,1.2515,1.2497,1.2486,1.2467,1.2443,1.2421,1.2416,1.2407,1.2406,1.24,1.2414,1.2415,1.2416,1.2421,1.2405,1.2405,1.2387,1.2386,1.2386]}]]